Regional Weather Roundup
Issued by NWS

Home | Current Version | Previous Version | Graphics & Text | Print | Product List | Glossary Off
Versions: 1 2 3 4 5 6 7 8 9 10 11 12 13 14 15 16 17 18 19 20 21 22 23 24 25 26 27 28 29 30 31 32 33 34 35 36 37 38 39 40 41 42 43 44 45 46 47 48 49 50

000
ASUS43 KMPX 260901
RWRMN
WEATHER ROUNDUP FOR MINNESOTA
NATIONAL WEATHER SERVICE TWIN CITIES/CHANHASSEN MN
400 AM CDT THU APR 26 2018


NOTE: "FAIR" INDICATES FEW OR NO CLOUDS BELOW 12,000 FEET WITH NO
SIGNIFICANT WEATHER AND/OR OBSTRUCTIONS TO VISIBILITY. N/A MEANS
CURRENT SKY AND/OR WEATHER CONDITIONS ARE NOT AVAILABLE.

MNZ060>063-068>070-261000-
   Twin Cities Metro

CITY           SKY/WX    TMP DP  RH WIND       PRES   REMARKS
TWIN CITIES    CLOUDY    46  34  62 S5        29.89F
ST PAUL        FAIR      42  34  73 SE6       29.89F
CRYSTAL        FAIR      42  32  67 S7        29.86F
BLAINE         FAIR      43  34  70 S8        29.86F
LAKEVILLE      FAIR      36  34  93 CALM      29.90S
EDEN PRAIRIE   FAIR      43  33  68 S8        29.87F
SOUTH ST PAUL  FAIR      42  33  71 CALM      29.89F
LAKE ELMO      FAIR      36  32  87 S3        29.89F
$$
MNZ001>005-007-008-013>017-022>024-027-028-261000-
   Northwest Minnesota

CITY           SKY/WX    TMP DP  RH WIND       PRES   REMARKS
BEMIDJI        FAIR      37  29  74 W3        29.79R
HALLOCK        FAIR      39  28  65 N14       29.90R
ROSEAU         FAIR      45  36  70 N9        29.86R
WARROAD        FAIR      45  37  76 NW7       29.85R
THIEF RVR FALL FAIR      45  32  60 N14       29.85R
CROOKSTON      FAIR      43  34  70 N16       29.87R
FOSSTON        FAIR      37  32  81 NW7       29.82S
DETROIT LAKES  FAIR      45  32  61 SW3       29.79F
MOORHEAD       FAIR      43  36  75 N12       29.82R
PARK RAPIDS    FAIR      39  31  72 S5        29.78F
MAHNOMEN       FAIR      39  32  77 NW3       29.81R
$$
MNZ006-009>011-018-025>026-261000-
   North Central Minnesota

CITY           SKY/WX    TMP DP  RH WIND       PRES   REMARKS
BAUDETTE       MOCLDY    44  35  70 N13       29.78R
FLAG ISLAND    FAIR      37  34  87 NW10      29.82R
INTL FALLS     FAIR      38  29  70 SW3       29.74S
WASKISH        FAIR      41  34  75 NW8       29.79R
BIG FORK       FAIR      39  28  65 SW6       29.77R
LONGVILLE      FAIR      43  30  61 SW5       29.79S
GRAND RAPIDS   FAIR      40  28  62 S5        29.81S
CRANE LAKE     FAIR      43  27  52 S3        29.77S
ORR            FAIR      43  25  49 S3        29.74S
COOK           MOCLDY    43  28  56 CALM      29.76F
WALKER         FAIR      43  31  60 SW8       29.78S
$$
MNZ012-019>021-037-261000-
   Northeast Minnesota

CITY           SKY/WX    TMP DP  RH WIND       PRES   REMARKS
DULUTH         FAIR      43  27  53 SW12      29.81F
ELY            FAIR      41  25  52 SW5       29.77F
HIBBING        FAIR      31  24  75 S3        29.78F
EVELETH        FAIR      31  25  80 CALM      29.80F
DULUTH HARBOR  FAIR      34  30  86 CALM      29.84F
TWO HARBORS    FAIR      32  27  80 CALM      29.80F
SILVER BAY     FAIR      28  25  86 CALM      29.80F
GRAND MARAIS     N/A     30  23  75 CALM      29.81F
G MARAIS ARPRT FAIR      36  16  44 SW5       29.79F
$$
MNZ029>031-032-039>041-046>048-054>057-064-261000-
   West Central Minnesota

CITY           SKY/WX    TMP DP  RH WIND       PRES   REMARKS
FERGUS FALLS   FAIR      39  32  75 S3        29.80R
WHEATON        CLOUDY    43  34  70 S7        29.80F
MORRIS         CLOUDY    39  36  87 SE9       29.80F
ALEXANDRIA     FAIR      47  32  56 SW10      29.82S
ELBOW LAKE     FAIR      40  33  77 S9        29.81S
WADENA         FAIR      39  30  70 S5        29.79S
GLENWOOD       FAIR      37  32  81 S8        29.83F
APPLETON       CLOUDY    45  34  65 S6        29.81F
BENSON         CLOUDY    41  34  75 S7        29.84F
ORTONVILLE     CLOUDY    43  34  70 S8        29.79F
WILLMAR        FAIR      39  34  81 CALM      29.88R
$$
MNZ033>034-036-042>043-049>051-058-059-261000-
   Central Minnesota

CITY           SKY/WX    TMP DP  RH WIND       PRES   REMARKS
ST CLOUD       FAIR      40  33  76 S3        29.85S
SAUK CENTRE    FAIR      38  32  78 S6        29.83F
PAYNESVILLE    FAIR      43  34  70 SW6       29.86R
AITKIN         FAIR      37  28  70 S5        29.80F
PINE RIVER     FAIR      34  28  80 CALM      29.84S
BRAINERD       FAIR      43  30  60 SW7       29.82S
STAPLES        FAIR      37  30  75 S6        29.80F
LONG PRAIRIE   FAIR      37  32  81 S6        29.82F
LITTLE FALLS   FAIR      37  27  65 CALM      29.84S
LITCHFIELD     FAIR      43  34  70 CALM      29.86S
BUFFALO        FAIR      43  33  68 S5        29.87F
MAPLE LAKE     FAIR      42  35  74 S5        29.87S
HUTCHINSON     FAIR      40  35  84 S6        29.87F
$$
MNZ037-044-045-052-053-261000-
   East Central Minnesota

CITY           SKY/WX    TMP DP  RH WIND       PRES   REMARKS
PRINCETON      FAIR      41  34  75 CALM      29.86S
MORA           FAIR      32  30  93 CALM      29.87S
CAMBRIDGE      FAIR      43  30  61 S3        29.86F
RUSH CITY      FAIR      39  30  70 S3        29.86F
MOOSE LAKE     FAIR      32  27  80 SW5       29.82F WCI  27
HINCKLEY       FAIR      32  30  93 CALM      29.85F
CLOQUET        FAIR      39  23  52 SW7       29.82F
MCGREGOR       FAIR      39  30  70 S5        29.81F
$$
MNZ071>073-080-081-089-090-097-098-261000-
   Southwest Minnesota

CITY           SKY/WX    TMP DP  RH WIND       PRES   REMARKS
MONTEVIDEO     CLOUDY    43  34  70 SW8       29.83F
GRANITE FALLS  CLOUDY    40  35  83 S9        29.86S
CANBY          MOCLDY    49  32  52 SW13      29.83F
MARSHALL       CLOUDY    46  32  58 SW15      29.84F
REDWOOD FALLS  CLOUDY    40  33  76 S10       29.85F
OLIVIA         CLOUDY    41  32  70 S6        29.85F
PIPESTONE      CLOUDY   N/A N/A N/A SW8       29.87F
WINDOM         PTCLDY    45  25  45 S9        29.89F
WORTHINGTON    CLOUDY    40  31  70 S9        29.90F
JACKSON        CLOUDY    41  32  70 S10       29.91F
TRACY          CLOUDY    45  33  65 SW16      29.85F
SLAYTON        CLOUDY    42  32  68 S8        29.89F
$$
MNZ065>067-074>077-082>085-091>093-261000-
   South Central Minnesota

CITY           SKY/WX    TMP DP  RH WIND       PRES   REMARKS
MANKATO        FAIR      42  34  73 S7        29.90F
NEW ULM        CLOUDY    39  34  81 S7        29.88F
ST JAMES       CLOUDY    39  34  81 S7        29.91F
FAIRMONT       CLOUDY    41  35  79 SW7       29.92S
GLENCOE        FAIR      42  36  76 S7        29.87F
OWATONNA       FAIR      39  34  81 CALM      29.92R
WASECA         FAIR      39  34  81 S5        29.93R
ALBERT LEA     FAIR      37  36  93 S3        29.92S
$$
MNZ078>079-086>088-094>096-261000-
   Southeast Minnesota

CITY           SKY/WX    TMP DP  RH WIND       PRES   REMARKS
ROCHESTER      FAIR      39  33  79 S5        29.92S
RED WING       FAIR      34  27  75 CALM      29.90F
STANTON        FAIR      36  32  87 SW6       29.90S
DODGE CENTER   FAIR      37  34  87 S3        29.91S
WINONA         FAIR      36  32  87 CALM      29.91S
AUSTIN         FAIR      37  34  87 CALM      29.92S
PRESTON        FAIR      38  31  74 SW5       29.93S
$$
ABBREVIATIONS USED IN REMARKS
   TC - TEMPERATURES IN CELSIUS
  WCI - WIND CHILL INDEX
   HX - HEAT INDEX
  VSB - VISIBILITY
$$




USA.gov is the U.S. government's official web portal to all federal, state and local government web resources and services.